Hourly Data Report for January 21, 2013

BAGOTVILLE A
QUEBEC

48°20'00.000" N
71°00'00.000" W
159.10 m
7060400
71727
YBG

Download Data

Hourly Data (January 2013)
Hourly Data Report for January 21, 2013
TIME
LST
Temp Definition
°C
Dew Point Definition
°C
Rel Hum Definition
%
Precip. Amount Definition
mm

Wind Dir Definition
10's deg

Wind Spd Definition
km/h
Visibility Definition
km
Stn Press Definition
kPa
Hmdx Definition


Wind Chill Definition


Weather Definition


00:00 -19.0 -24.2 63   28 37 4.8 98.56   -32 Snow,Blowing Snow
01:00 -19.4 -23.1 72   29 35 4.8 98.61   -33 Snow,Blowing Snow
02:00 -20.0 -24.7 66   28 48 1.6 98.74   -35 Snow,Blowing Snow
03:00 -20.6 -24.5 71   29 37 4.8 98.83   -34 Snow,Blowing Snow
04:00 -21.1 -25.2 70   28 37 4.8 98.88   -35 Snow,Blowing Snow
05:00 -21.7 -25.9 69   29 33 24.1 98.95   -35 Mainly Clear
06:00 -22.3 -26.6 68   28 28 24.1 99.04   -35 Mainly Clear
07:00 -22.8 -27.3 67   28 26 24.1 99.14   -35 Mainly Clear
08:00 -23.1 -27.6 67   28 24 40.2 99.24   -35 Mainly Clear
09:00 -23.1 -27.6 67   28 26 40.2 99.33   -36 Mostly Cloudy
10:00 -22.5 -26.9 67   29 32 40.2 99.39   -36 Mostly Cloudy
11:00 -22.0 -28.5 56   29 32 40.2 99.40   -36 Mostly Cloudy
12:00 -21.0 -28.1 53   30 19 40.2 99.39   -31 Mainly Clear
13:00 -20.5 -27.4 54   32 22 40.2 99.35   -32 Mainly Clear
14:00 -19.9 -25.5 61   33 17 32.2 99.37   -30 Mainly Clear
15:00 -20.0 -24.7 66   31 11 40.2 99.42   -28 Mainly Clear
16:00 -20.2 -25.9 60   35 9 40.2 99.43   -27 Mainly Clear
17:00 -21.3 -29.9 46   36 4 40.2 99.47   -25 Mainly Clear
18:00 -22.8 -28.4 60   30 4 24.1 99.48   -27 Mainly Clear
19:00 -24.3 -28.0 71   27 9 24.1 99.55   -32 Mainly Clear
20:00 -24.1 -26.7 79   27 9 24.1 99.57   -32 Mainly Clear
21:00 -24.6 -27.2 79   26 7 24.1 99.58   -31 Mainly Clear
22:00 -25.4 -28.1 78   27 9 24.1 99.59   -33 Mainly Clear
23:00 -25.9 -27.5 86   26 7 24.1 99.58   -33 Mostly Cloudy

Notes on Data Quality.

Legend

  • E = Estimated
  • M = Missing
  • NA = Not Available*
  • [empty] = Indicates an unobserved value
Date modified: